TimeEDT,TemperatureF,Dew PointF,Humidity,Sea Level PressureIn,VisibilityMPH,Wind Direction,Wind SpeedMPH,Gust SpeedMPH,PrecipitationIn,Events,Conditions,WindDirDegrees,DateUTC
12:58 AM,78.1,73.9,87,30.12,10.0,Variable,5.8,-,N/A,,Clear,0,2013-07-09 04:58:00
1:58 AM,77.4,73.8,89,30.13,10.0,SW,10.4,-,N/A,,Clear,220,2013-07-09 05:58:00
2:58 AM,75.9,72.0,87,30.12,6.0,Variable,3.5,-,N/A,,Haze,0,2013-07-09 06:58:00
3:58 AM,75.7,71.4,86,30.12,10.0,SSW,5.8,-,N/A,,Clear,210,2013-07-09 07:58:00
4:48 AM,75.2,71.6,89,30.11,10.0,SW,4.6,-,N/A,,Mostly Cloudy,230,2013-07-09 08:48:00
4:58 AM,74.8,71.8,90,30.12,10.0,SSW,5.8,-,N/A,,Mostly Cloudy,210,2013-07-09 08:58:00
5:03 AM,75.2,71.6,89,30.11,10.0,Variable,4.6,-,N/A,,Mostly Cloudy,0,2013-07-09 09:03:00
5:08 AM,75.2,71.6,89,30.11,10.0,SSW,3.5,-,N/A,,Mostly Cloudy,210,2013-07-09 09:08:00
5:18 AM,75.2,71.6,89,30.11,10.0,SSW,2.3,-,N/A,,Scattered Clouds,210,2013-07-09 09:18:00
5:58 AM,74.1,71.4,91,30.12,10.0,SSW,3.5,-,N/A,,Clear,210,2013-07-09 09:58:00
6:58 AM,74.7,72.0,91,30.13,10.0,SSW,8.1,-,N/A,,Scattered Clouds,200,2013-07-09 10:58:00
7:53 AM,75.2,73.4,94,30.13,10.0,South,5.8,-,N/A,,Mostly Cloudy,190,2013-07-09 11:53:00
7:58 AM,75.9,72.5,89,30.14,10.0,Variable,4.6,-,N/A,,Mostly Cloudy,0,2013-07-09 11:58:00
8:33 AM,77.0,73.4,89,30.13,10.0,SSW,9.2,-,N/A,,Scattered Clouds,210,2013-07-09 12:33:00
8:58 AM,78.6,73.4,84,30.14,10.0,South,8.1,-,N/A,,Scattered Clouds,180,2013-07-09 12:58:00
9:03 AM,78.8,73.4,83,30.13,10.0,SSW,9.2,-,N/A,,Mostly Cloudy,210,2013-07-09 13:03:00
9:13 AM,78.8,73.4,83,30.13,10.0,SSW,8.1,-,N/A,,Scattered Clouds,200,2013-07-09 13:13:00
9:18 AM,78.8,73.4,83,30.13,10.0,South,8.1,-,N/A,,Mostly Cloudy,180,2013-07-09 13:18:00
9:58 AM,79.2,73.8,83,30.14,10.0,South,8.1,-,N/A,,Mostly Cloudy,190,2013-07-09 13:58:00
10:08 AM,78.8,73.4,83,30.13,10.0,SW,8.1,-,N/A,,Scattered Clouds,220,2013-07-09 14:08:00
10:58 AM,81.3,74.7,80,30.14,10.0,South,8.1,-,N/A,,Partly Cloudy,170,2013-07-09 14:58:00
11:58 AM,83.1,75.2,77,30.14,10.0,South,6.9,-,N/A,,Partly Cloudy,190,2013-07-09 15:58:00
12:58 PM,84.4,75.2,74,30.12,10.0,South,8.1,-,N/A,,Scattered Clouds,170,2013-07-09 16:58:00
1:58 PM,87.3,75.9,69,30.11,10.0,SW,8.1,-,N/A,,Mostly Cloudy,230,2013-07-09 17:58:00
2:58 PM,85.6,75.4,71,30.10,10.0,South,8.1,-,N/A,,Scattered Clouds,190,2013-07-09 18:58:00
3:58 PM,87.6,75.6,67,30.07,10.0,South,8.1,21.9,N/A,,Clear,190,2013-07-09 19:58:00
4:58 PM,86.2,75.0,69,30.06,10.0,Variable,6.9,-,N/A,,Scattered Clouds,0,2013-07-09 20:58:00
5:32 PM,84.2,73.4,70,30.06,10.0,SSW,6.9,-,N/A,Thunderstorm,Thunderstorm,210,2013-07-09 21:32:00
5:58 PM,83.3,75.2,76,30.08,10.0,Variable,6.9,18.4,N/A,Thunderstorm,Thunderstorm,0,2013-07-09 21:58:00
6:03 PM,82.4,75.2,79,30.07,10.0,WNW,6.9,-,N/A,Rain-Thunderstorm,Light Thunderstorms and Rain,300,2013-07-09 22:03:00
6:21 PM,80.6,75.2,84,30.06,10.0,NNE,4.6,-,N/A,Rain,Light Rain,30,2013-07-09 22:21:00
6:40 PM,80.6,77.0,89,30.05,10.0,SSE,3.5,-,N/A,,Clear,160,2013-07-09 22:40:00
6:58 PM,81.5,76.8,86,30.05,10.0,South,5.8,-,0.01,,Partly Cloudy,170,2013-07-09 22:58:00
7:58 PM,83.5,75.0,76,30.06,10.0,South,5.8,-,N/A,,Scattered Clouds,190,2013-07-09 23:58:00
8:58 PM,80.4,71.2,73,30.07,10.0,SW,10.4,-,N/A,,Mostly Cloudy,220,2013-07-10 00:58:00
9:58 PM,78.8,71.6,78,30.10,10.0,SSW,6.9,-,N/A,,Mostly Cloudy,210,2013-07-10 01:58:00
10:58 PM,78.1,72.3,82,30.10,10.0,SW,5.8,-,N/A,,Mostly Cloudy,220,2013-07-10 02:58:00
11:58 PM,77.5,72.3,84,30.09,10.0,South,6.9,-,N/A,,Clear,180,2013-07-10 03:58:00